Frederick, MD

3:49 AM EST on January 24, 2018 (GMT -0500)
Frederick Municipal

Weather History for KFDK - May, 2013

Change the Weather History Date:

Wednesday, May 8, 2013

  Actual Average (KHGR) Record (KHGR)
Temperature  
Mean Temperature 60 °F -  
Max Temperature 68 °F 69 °F 89 °F (2000)
Min Temperature 51 °F 49 °F 35 °F (1997)
Degree Days  
Heating Degree Days 6    
Growing Degree Days 10 (Base 50)    
Moisture  
Dew Point 56 °F    
Average Humidity 95    
Maximum Humidity 100    
Minimum Humidity 64    
Precipitation  
Precipitation 0.01 in - - ()
Sea Level Pressure  
Sea Level Pressure 30.00 in    
Wind  
Wind Speed 4 mph (ESE)    
Max Wind Speed 8 mph    
Max Gust Speed -    
Visibility 7 miles    
Events Fog , Rain , Thunderstorm    
Averages and records for this station are not official NWS values.
T = Trace of Precipitation, MM = Missing Value Source: NWS Daily Summary

Daily Weather History Graph

Daily Weather History Graph

Search for Another Location

Airport or City:

Trip Planner

Search our weather history database for the weather conditions in past years. The results will help you decide how hot, cold, wet, or windy it might be!

Date:

Astronomy

May. 08, 2013 Rise Set
Actual Time 6:02 AM EDT 8:10 PM EDT
Civil Twilight 5:32 AM EDT 8:39 PM EDT
Nautical Twilight 4:56 AM EDT 9:16 PM EDT
Astronomical Twilight 4:16 AM EDT 9:56 PM EDT
Moon 5:08 AM EDT (5/8) 7:06 PM EDT (5/8)
Length of Visible Light 15h 07m
Length of Day
14h 07m
Waning Crescent, 2% of the Moon is Illuminated
May 8
Waning Crescent
May 9
New
May 18
First Quarter
May 25
Full
May 31
Last Quarter

Hourly Weather History & Observations

Time (EDT) Temp. Dew Point Humidity Pressure Visibility Wind Dir Wind Speed Gust Speed Precip Events Conditions
12:15 AM 59.0 °F 59.0 °F 100% 30.01 in 7.0 mi East 6.9 mph - N/A Rain Rain
12:35 AM 59.0 °F 59.0 °F 100% 30.01 in 10.0 mi ESE 5.8 mph - N/A   Overcast
12:55 AM 59.0 °F 59.0 °F 100% 30.01 in 10.0 mi ESE 5.8 mph - N/A   Overcast
1:15 AM 59.0 °F 59.0 °F 100% 30.01 in 10.0 mi East 8.1 mph - 0.01 in   Overcast
1:35 AM 59.0 °F 59.0 °F 100% 30.00 in 10.0 mi East 5.8 mph - 0.01 in   Overcast
1:55 AM 59.0 °F 59.0 °F 100% 29.99 in 10.0 mi East 5.8 mph - 0.01 in   Overcast
2:15 AM 59.0 °F 59.0 °F 100% 29.99 in 10.0 mi East 5.8 mph - N/A   Overcast
2:35 AM 57.2 °F 57.2 °F 100% 29.99 in 10.0 mi East 4.6 mph - N/A   Mostly Cloudy
2:55 AM 59.0 °F 59.0 °F 100% 29.99 in 10.0 mi East 6.9 mph - N/A   Overcast
3:15 AM 57.2 °F 57.2 °F 100% 29.99 in 7.0 mi East 5.8 mph - N/A   Overcast
3:35 AM 55.4 °F 55.4 °F 100% 29.99 in 7.0 mi East 3.5 mph - N/A   Mostly Cloudy
3:55 AM 55.4 °F 55.4 °F 100% 29.98 in 7.0 mi ENE 3.5 mph - N/A   Mostly Cloudy
4:15 AM 55.4 °F 55.4 °F 100% 29.99 in 7.0 mi Calm Calm - N/A   Mostly Cloudy
4:35 AM 55.4 °F 55.4 °F 100% 29.99 in 7.0 mi Calm Calm - N/A   Overcast
4:55 AM 55.4 °F 55.4 °F 100% 30.00 in 7.0 mi Calm Calm - N/A   Overcast
5:15 AM 55.4 °F 55.4 °F 100% 30.00 in 5.0 mi Calm Calm - N/A   Overcast
5:35 AM 53.6 °F 53.6 °F 100% 29.99 in 2.5 mi Calm Calm - N/A   Mostly Cloudy
5:55 AM 53.6 °F 53.6 °F 100% 29.99 in 1.8 mi NE 3.5 mph - N/A   Mostly Cloudy
6:15 AM 53.6 °F 53.6 °F 100% 30.00 in 3.0 mi Calm Calm - N/A   Mostly Cloudy
6:35 AM 53.6 °F 53.6 °F 100% 30.00 in 2.5 mi Calm Calm - N/A   Mostly Cloudy
6:45 AM 53.6 °F 53.6 °F 100% 30.01 in 2.0 mi Calm Calm - N/A   Overcast
6:50 AM 55.4 °F 55.4 °F 100% 30.01 in 5.0 mi Calm Calm - N/A   Overcast
7:50 AM 57.2 °F 57.2 °F 100% 30.02 in 5.0 mi Calm Calm - N/A   Overcast
8:55 AM 60.8 °F 59.0 °F 94% 30.04 in 5.0 mi Calm Calm - N/A   Overcast
9:45 AM 62.6 °F 59.0 °F 88% 30.04 in 7.0 mi Calm Calm - N/A   Overcast
10:45 AM 64.4 °F 55.4 °F 73% 30.03 in 10.0 mi Calm Calm - N/A   Scattered Clouds
11:55 AM 66.2 °F 55.4 °F 68% 30.02 in 10.0 mi SSW 4.6 mph - N/A   Mostly Cloudy
12:47 PM 68.0 °F 57.2 °F 68% 30.00 in 10.0 mi Calm Calm - N/A   Mostly Cloudy
1:46 PM 68.0 °F 57.2 °F 68% 29.98 in 10.0 mi SW 4.6 mph - N/A   Mostly Cloudy
2:01 PM 66.2 °F 60.8 °F 83% 29.99 in 7.0 mi SSW 8.1 mph - N/A Thunderstorm Overcast
2:50 PM 64.4 °F 55.4 °F 73% 29.97 in 10.0 mi Calm Calm - N/A Thunderstorm Mostly Cloudy
4:50 PM 68.0 °F 55.4 °F 64% 29.95 in 10.0 mi Calm Calm - N/A   Overcast
6:45 PM 55.4 °F 55.4 °F 100% 29.98 in 10.0 mi Calm Calm - N/A Thunderstorm Overcast
7:50 PM 55.4 °F 55.4 °F 100% 29.99 in 10.0 mi SSW 4.6 mph - N/A   Mostly Cloudy
9:00 PM 53.6 °F 53.6 °F 100% 29.99 in 7.0 mi Calm Calm - N/A   Overcast
9:20 PM 53.6 °F 53.6 °F 100% 29.99 in 10.0 mi Calm Calm - N/A   Overcast
9:40 PM 53.6 °F 53.6 °F 100% 30.00 in 5.0 mi Calm Calm - N/A   Overcast
10:00 PM 51.8 °F 51.8 °F 100% 30.01 in 1.5 mi Calm Calm - N/A   Mostly Cloudy
10:20 PM 53.6 °F 53.6 °F 100% 30.01 in 3.0 mi Calm Calm - N/A   Scattered Clouds
10:40 PM 51.8 °F 51.8 °F 100% 30.01 in 1.8 mi Calm Calm - N/A   Mist
11:00 PM 51.8 °F 51.8 °F 100% 30.01 in 0.5 mi Calm Calm - N/A Fog Fog
11:20 PM 51.8 °F 51.8 °F 100% 30.01 in 0.8 mi Calm Calm - N/A   Overcast
11:40 PM 51.8 °F 51.8 °F 100% 30.00 in 1.5 mi Calm Calm - N/A   Overcast